| time (UTC) | temp F | wind direction | speed MPH | gust MPH | rain 1hr in | rain 24hr in | rain mn in | humidity % | barometer mb |
| 20260507214523 | 64 | 121 | 4.0 | 11.0 | 0.00 | 0.00 | 0.00 | 39 | 1011.1 |
| 20260507213018 | 66 | 102 | 4.0 | 13.0 | 0.00 | 0.00 | 0.00 | 43 | 1011.0 |
| 20260507211515 | 64 | 77 | 4.0 | 11.0 | 0.00 | 0.00 | 0.00 | 43 | 1010.8 |
| 20260507210014 | 64 | 55 | 5.0 | 15.0 | 0.00 | 0.00 | 0.00 | 41 | 1010.7 |
| 20260507204512 | 65 | 101 | 6.0 | 13.0 | 0.00 | 0.00 | 0.00 | 42 | 1010.7 |
| 20260507203011 | 65 | 55 | 9.0 | 14.0 | 0.00 | 0.00 | 0.00 | 41 | 1010.5 |
| 20260507201510 | 65 | 360 | 10.0 | 23.0 | 0.00 | 0.00 | 0.00 | 43 | 1010.6 |
| 20260507200007 | 65 | 24 | 6.0 | 14.0 | 0.00 | 0.00 | 0.00 | 43 | 1010.8 |
| 20260507194505 | 65 | 154 | 5.0 | 12.0 | 0.00 | 0.00 | 0.00 | 43 | 1010.9 |
| 20260507193003 | 63 | 13 | 6.0 | 11.0 | 0.00 | 0.00 | 0.00 | 44 | 1011.0 |
| 20260507191503 | 63 | 121 | 2.0 | 11.0 | 0.00 | 0.00 | 0.00 | 46 | 1011.3 |
| 20260507190059 | 63 | 93 | 4.0 | 10.0 | 0.00 | 0.00 | 0.00 | 45 | 1011.4 |
| 20260507184605 | 64 | 71 | 7.0 | 15.0 | 0.00 | 0.00 | 0.00 | 46 | 1011.5 |
| 20260507183056 | 64 | 58 | 8.0 | 13.0 | 0.00 | 0.00 | 0.00 | 49 | 1011.5 |
| 20260507181603 | 63 | 166 | 6.0 | 13.0 | 0.00 | 0.00 | 0.00 | 48 | 1011.6 |
| 20260507180051 | 62 | 165 | 5.0 | 13.0 | 0.00 | 0.00 | 0.00 | 49 | 1011.7 |
| 20260507174555 | 63 | 66 | 8.0 | 13.0 | 0.00 | 0.00 | 0.00 | 50 | 1011.7 |
| 20260507173048 | 63 | 40 | 7.0 | 13.0 | 0.00 | 0.00 | 0.00 | 50 | 1011.8 |
| 20260507171545 | 62 | 117 | 4.0 | 11.0 | 0.00 | 0.00 | 0.00 | 52 | 1012.0 |
| 20260507170021 | 61 | 121 | 6.0 | 14.0 | 0.00 | 0.00 | 0.00 | 53 | 1012.3 |
| 20260507164513 | 62 | 63 | 8.0 | 13.0 | 0.00 | 0.00 | 0.00 | 52 | 1012.2 |
| 20260507163008 | 61 | 150 | 3.0 | 11.0 | 0.00 | 0.00 | 0.00 | 52 | 1012.4 |
| 20260507161507 | 61 | 182 | 4.0 | 9.0 | 0.00 | 0.00 | 0.00 | 54 | 1012.6 |
| 20260507160012 | 60 | 32 | 4.0 | 8.0 | 0.00 | 0.00 | 0.00 | 56 | 1012.6 |
| 20260507154504 | 60 | 188 | 1.0 | 8.0 | 0.00 | 0.00 | 0.00 | 56 | 1012.8 |
| 20260507153103 | 59 | 69 | 5.0 | 8.0 | 0.00 | 0.00 | 0.00 | 56 | 1012.9 |
| 20260507151559 | 59 | 252 | 7.0 | 13.0 | 0.00 | 0.00 | 0.00 | 58 | 1012.7 |
| 20260507150057 | 58 | 99 | 1.0 | 8.0 | 0.00 | 0.01 | 0.00 | 57 | 1012.9 |
| 20260507144557 | 58 | 34 | 3.0 | 9.0 | 0.00 | 0.01 | 0.00 | 58 | 1013.0 |
| 20260507143050 | 57 | 146 | 3.0 | 8.0 | 0.00 | 0.01 | 0.00 | 60 | 1013.0 |
| 20260507141547 | 56 | 173 | 2.0 | 13.0 | 0.00 | 0.01 | 0.00 | 59 | 1013.0 |
| 20260507140049 | 56 | 176 | 4.0 | 9.0 | 0.00 | 0.02 | 0.00 | 62 | 1013.2 |
| 20260507134544 | 55 | 315 | 1.0 | 6.0 | 0.00 | 0.02 | 0.00 | 77 | 1013.2 |
| 20260507133036 | 54 | 308 | 1.0 | 7.0 | 0.00 | 0.02 | 0.00 | 78 | 1013.6 |
| 20260507131550 | 53 | 273 | 0.0 | 0.0 | 0.00 | 0.02 | 0.00 | 83 | 1013.5 |
| 20260507130031 | 52 | 173 | 0.0 | 0.0 | 0.00 | 0.02 | 0.00 | 87 | 1013.5 |
| 20260507124534 | 51 | 185 | 0.0 | 0.0 | 0.00 | 0.02 | 0.00 | 92 | 1013.4 |
| 20260507123029 | 51 | 186 | 0.0 | 0.0 | 0.00 | 0.02 | 0.00 | 93 | 1013.4 |
| 20260507121531 | 51 | 186 | 0.0 | 0.0 | 0.00 | 0.02 | 0.00 | 94 | 1013.5 |
| 20260507120038 | 50 | 186 | 0.0 | 0.0 | 0.00 | 0.03 | 0.00 | 94 | 1013.4 |
| 20260507114527 | 50 | 186 | 0.0 | 0.0 | 0.00 | 0.03 | 0.00 | 94 | 1013.3 |
| 20260507113100 | 49 | 186 | 0.0 | 0.0 | 0.00 | 0.03 | 0.00 | 94 | 1013.5 |
| 20260507111604 | 49 | 186 | 0.0 | 0.0 | 0.00 | 0.03 | 0.00 | 94 | 1013.3 |
| 20260507110055 | 49 | 186 | 0.0 | 0.0 | 0.00 | 0.07 | 0.00 | 93 | 1013.0 |
| 20260507104552 | 49 | 186 | 0.0 | 0.0 | 0.00 | 0.07 | 0.00 | 93 | 1012.9 |
| 20260507103052 | 49 | 186 | 0.0 | 0.0 | 0.00 | 0.07 | 0.00 | 93 | 1012.8 |
| 20260507101602 | 49 | 186 | 0.0 | 0.0 | 0.00 | 0.07 | 0.00 | 93 | 1012.8 |
| 20260507100049 | 48 | 186 | 0.0 | 0.0 | 0.00 | 0.13 | 0.00 | 92 | 1012.5 |
| 20260507094549 | 48 | 186 | 0.0 | 0.0 | 0.00 | 0.13 | 0.00 | 92 | 1012.5 |
| 20260507093053 | 49 | 185 | 0.0 | 0.0 | 0.00 | 0.13 | 0.00 | 93 | 1012.7 |
| 20260507091551 | 49 | 185 | 0.0 | 0.0 | 0.00 | 0.13 | 0.00 | 93 | 1013.0 |
| 20260507090043 | 49 | 185 | 0.0 | 0.0 | 0.00 | 0.17 | 0.00 | 92 | 1012.8 |
| 20260507084543 | 49 | 185 | 0.0 | 0.0 | 0.00 | 0.17 | 0.00 | 92 | 1012.5 |
| 20260507083041 | 49 | 185 | 0.0 | 0.0 | 0.00 | 0.17 | 0.00 | 92 | 1012.5 |
| 20260507081547 | 49 | 185 | 0.0 | 0.0 | 0.00 | 0.17 | 0.00 | 92 | 1012.7 |
| 20260507080008 | 50 | 185 | 0.0 | 0.0 | 0.00 | 0.31 | 0.00 | 91 | 1012.5 |
| 20260507074515 | 50 | 185 | 0.0 | 0.0 | 0.00 | 0.31 | 0.00 | 92 | 1012.8 |
| 20260507073004 | 50 | 185 | 0.0 | 0.0 | 0.00 | 0.31 | 0.00 | 91 | 1012.6 |
| 20260507071504 | 50 | 185 | 0.0 | 0.0 | 0.00 | 0.31 | 0.00 | 91 | 1012.7 |
| 20260507070004 | 50 | 185 | 0.0 | 0.0 | 0.00 | 0.35 | 0.00 | 91 | 1012.5 |
| 20260507064501 | 50 | 184 | 0.0 | 0.0 | 0.00 | 0.35 | 0.00 | 91 | 1012.9 |
| 20260507063100 | 51 | 184 | 0.0 | 0.0 | 0.00 | 0.35 | 0.00 | 91 | 1012.8 |
| 20260507061556 | 51 | 184 | 0.0 | 0.0 | 0.00 | 0.35 | 0.00 | 91 | 1012.7 |
| 20260507060055 | 51 | 184 | 0.0 | 0.0 | 0.00 | 0.37 | 0.00 | 91 | 1012.8 |
| 20260507054635 | 52 | 184 | 0.0 | 0.0 | 0.00 | 0.37 | 0.00 | 90 | 1012.9 |
| 20260507053053 | 52 | 184 | 0.0 | 0.0 | 0.00 | 0.37 | 0.00 | 88 | 1013.0 |
| 20260507051547 | 53 | 184 | 0.0 | 0.0 | 0.00 | 0.37 | 0.00 | 86 | 1013.0 |
| 20260507050050 | 53 | 184 | 0.0 | 0.0 | 0.00 | 0.37 | 0.00 | 87 | 1012.9 |
| 20260507044548 | 54 | 184 | 0.0 | 0.0 | 0.00 | 0.37 | 0.00 | 86 | 1013.1 |
| 20260507043045 | 54 | 184 | 0.0 | 0.0 | 0.00 | 0.37 | 0.00 | 84 | 1013.2 |
| 20260507041509 | 54 | 184 | 0.0 | 0.0 | 0.00 | 0.37 | 0.00 | 82 | 1013.1 |
| 20260507040007 | 54 | 184 | 0.0 | 4.0 | 0.00 | 0.37 | 0.37 | 82 | 1012.8 |
| 20260507034505 | 54 | 185 | 0.0 | 7.0 | 0.00 | 0.37 | 0.37 | 85 | 1012.5 |
| 20260507033006 | 54 | 146 | 2.0 | 6.0 | 0.00 | 0.37 | 0.37 | 92 | 1012.6 |
| 20260507031503 | 55 | 314 | 0.0 | 0.0 | 0.00 | 0.37 | 0.37 | 95 | 1012.4 |
| 20260507030005 | 55 | 315 | 0.0 | 0.0 | 0.00 | 0.37 | 0.37 | 96 | 1012.5 |
| 20260507024600 | 55 | 314 | 0.0 | 0.0 | 0.00 | 0.37 | 0.37 | 95 | 1012.5 |
| 20260507023106 | 55 | 315 | 0.0 | 0.0 | 0.00 | 0.37 | 0.37 | 95 | 1012.6 |
| 20260507021602 | 55 | 315 | 0.0 | 0.0 | 0.00 | 0.37 | 0.37 | 95 | 1012.8 |
| 20260507020100 | 55 | 315 | 0.0 | 0.0 | 0.00 | 0.37 | 0.37 | 95 | 1012.8 |
| 20260507014602 | 56 | 314 | 0.0 | 0.0 | 0.00 | 0.37 | 0.37 | 94 | 1011.6 |
| 20260507013053 | 56 | 313 | 0.0 | 0.0 | 0.00 | 0.37 | 0.37 | 94 | 1012.3 |
| 20260507011552 | 56 | 313 | 0.0 | 0.0 | 0.00 | 0.37 | 0.37 | 94 | 1011.3 |
| 20260507010051 | 56 | 309 | 0.0 | 0.0 | 0.00 | 0.37 | 0.37 | 94 | 1011.6 |
| 20260507004523 | 56 | 308 | 0.0 | 0.0 | 0.00 | 0.37 | 0.37 | 94 | 1010.6 |
| 20260507003021 | 56 | 308 | 0.0 | 2.0 | 0.00 | 0.37 | 0.37 | 93 | 1011.1 |
| 20260507001524 | 56 | 308 | 0.0 | 6.0 | 0.00 | 0.37 | 0.37 | 93 | 1011.2 |
| 20260507000022 | 56 | 344 | 0.0 | 5.0 | 0.00 | 0.37 | 0.37 | 93 | 1010.6 |
| 20260506234515 | 57 | 345 | 0.0 | 2.0 | 0.00 | 0.37 | 0.37 | 92 | 1011.5 |
| 20260506233015 | 57 | 345 | 0.0 | 5.0 | 0.00 | 0.37 | 0.37 | 92 | 1010.9 |
| 20260506231545 | 57 | 355 | 1.0 | 5.0 | 0.00 | 0.37 | 0.37 | 92 | 1010.4 |
| 20260506230045 | 57 | 19 | 1.0 | 4.0 | 0.00 | 0.37 | 0.37 | 91 | 1010.6 |
| 20260506224541 | 57 | 20 | 0.0 | 2.0 | 0.00 | 0.37 | 0.37 | 90 | 1010.9 |
| 20260506223039 | 57 | 20 | 1.0 | 2.0 | 0.00 | 0.37 | 0.37 | 90 | 1011.2 |
| 20260506221538 | 57 | 19 | 2.0 | 5.0 | 0.00 | 0.37 | 0.37 | 89 | 1010.8 |
| 20260506220036 | 58 | 45 | 0.0 | 5.0 | 0.00 | 0.37 | 0.37 | 90 | 1010.7 |